Date String (YYYY-MM-DD hh:mm:ss) UTC,Instrument flags,absolute air pressure of the measurement (hPa),sample flow rate (lpm),inlet stack bypass flow (lpm),air temperature of the measurement (°C),ambient temperature measured by the external sensor (°C),aerosol sample conditioner tube jacket temperature (°C),OPC LED temperature (°C),internal box temperature (°C),relative humidity of the measurement (%),span deviation,mass concentration of particles derived from Lorenz-Mie calculation of OPC scattering (μg/m³),mass concentration of particles derived from Lorenz-Mie calculation of OPC scattering (μg/m³),mass concentration of particles derived from Lorenz-Mie calculation of OPC scattering (μg/m³)
DateTimeUTC,F1_M11,P_M11,Q1_M11,Q2_M11,T1_M11,T2_M11,T3_M11,T4_M11,T5_M11,U1_M11,ZSPAN_M11,X0_M11,X2_M11,X1_M11
2023-08-06 09:00:00,SystemResetWarning,0838.2,5.00,000.00,029.6,028.4,000.0,038.1,031.2,30.7,0000.0,0004.93,0003.98,0003.81
2023-08-06 09:01:00,SystemResetWarning,0838.2,5.00,000.00,029.6,028.4,000.0,038.2,031.2,30.6,0000.0,0004.57,0003.99,0003.83
2023-08-06 09:02:00,SystemResetWarning,0838.2,5.00,000.00,029.6,028.5,000.0,038.2,031.3,30.5,0000.0,0004.61,0004.01,0003.85
2023-08-06 09:03:00,SystemResetWarning,0838.2,5.00,000.00,029.7,028.5,000.0,038.2,031.3,30.4,0000.0,0004.73,0004.06,0003.88
2023-08-06 09:04:00,SystemResetWarning,0838.2,5.00,000.00,029.7,028.5,000.0,038.2,031.3,30.4,0000.0,0004.69,0004.06,0003.89
2023-08-06 09:05:00,SystemResetWarning,0838.2,5.00,000.00,029.7,028.6,000.0,038.2,031.3,30.2,0000.0,0004.69,0004.07,0003.90
2023-08-06 09:06:00,SystemResetWarning,0838.2,5.00,000.00,029.7,028.6,000.0,038.2,031.4,30.3,0000.0,0004.60,0004.05,0003.89
2023-08-06 09:07:00,SystemResetWarning,0838.3,5.00,000.00,029.7,028.6,000.0,038.3,031.4,30.4,0000.0,0004.66,0004.04,0003.89
2023-08-06 09:08:00,SystemResetWarning,0838.4,5.00,000.00,029.8,028.6,000.0,038.3,031.4,30.2,0000.0,0005.15,0004.04,0003.89
2023-08-06 09:09:00,SystemResetWarning,0838.4,5.00,000.00,029.8,028.7,000.0,038.3,031.4,30.4,0000.0,0005.42,0004.06,0003.88
2023-08-06 09:10:00,SystemResetWarning,0838.4,5.00,000.00,029.8,028.7,000.0,038.3,031.5,30.3,0000.0,0005.52,0004.05,0003.86
2023-08-06 09:11:00,SystemResetWarning,0838.4,5.00,000.00,029.8,028.6,000.0,038.3,031.5,30.1,0000.0,0005.43,0004.01,0003.84
2023-08-06 09:12:00,SystemResetWarning,0838.4,4.98,000.00,029.8,027.1,000.0,038.2,031.3,30.1,0000.0,0005.55,0004.01,0003.82
2023-08-06 09:13:00,SystemResetWarning,0838.3,5.01,000.00,029.8,025.6,000.0,038.1,031.1,30.1,0000.0,0005.50,0003.98,0003.80
2023-08-06 09:14:00,SystemResetWarning,0838.3,5.01,000.00,029.6,025.4,000.0,038.1,030.8,30.2,0000.0,0005.50,0003.95,0003.77
2023-08-06 09:15:00,SystemResetWarning,0838.3,5.00,000.00,029.5,025.6,000.0,038.1,030.7,30.5,0000.0,0006.33,0003.93,0003.74
2023-08-06 09:16:00,SystemResetWarning,0838.3,5.00,000.00,029.5,026.0,000.0,038.1,030.7,30.7,0000.0,0006.75,0003.93,0003.73
2023-08-06 09:17:00,SystemResetWarning,0838.3,5.00,000.00,029.4,026.4,000.0,038.1,030.8,30.7,0000.0,0006.77,0003.92,0003.72
2023-08-06 09:18:00,SystemResetWarning,0838.4,5.00,000.00,029.4,026.8,000.0,038.1,030.9,30.8,0000.0,0006.77,0003.91,0003.71
2023-08-06 09:19:00,SystemResetWarning,0838.4,5.00,000.00,029.4,027.1,000.0,038.1,030.9,30.7,0000.0,0006.24,0003.89,0003.71
2023-08-06 09:20:00,SystemResetWarning,0838.4,5.01,000.00,029.4,027.4,000.0,038.1,031.0,30.6,0000.0,0005.95,0003.87,0003.71
2023-08-06 09:21:00,SystemResetWarning,0838.5,5.00,000.00,029.5,027.6,000.0,038.1,031.0,30.3,0000.0,0005.88,0003.86,0003.72
2023-08-06 09:22:00,SystemResetWarning,0838.6,5.00,000.00,029.5,027.8,000.0,038.1,031.1,30.3,0000.0,0005.92,0003.89,0003.74
2023-08-06 09:23:00,SystemResetWarning,0838.6,4.99,000.00,029.5,027.9,000.0,038.1,031.1,30.5,0000.0,0005.84,0003.89,0003.76
2023-08-06 09:24:00,SystemResetWarning,0838.6,5.00,000.00,029.5,028.0,000.0,038.1,031.1,30.6,0000.0,0005.99,0003.91,0003.77
2023-08-06 09:25:00,SystemResetWarning,0838.6,5.00,000.00,029.5,028.1,000.0,038.1,031.2,30.6,0000.0,0005.96,0003.93,0003.79
2023-08-06 09:26:00,SystemResetWarning,0838.5,5.00,000.00,029.6,028.2,000.0,038.1,031.2,30.5,0000.0,0006.23,0003.97,0003.82
2023-08-06 09:27:00,SystemResetWarning,0838.5,5.00,000.00,029.6,028.3,000.0,038.1,031.2,30.3,0000.0,0006.52,0004.00,0003.84
2023-08-06 09:28:00,SystemResetWarning,0838.5,5.01,000.00,029.6,028.4,000.0,038.2,031.2,30.1,0000.0,0006.61,0004.03,0003.86
2023-08-06 09:29:00,SystemResetWarning,0838.5,5.01,000.00,029.6,028.4,000.0,038.2,031.3,30.1,0000.0,0006.62,0004.06,0003.87
2023-08-06 09:30:00,SystemResetWarning,0838.5,5.00,000.00,029.6,028.5,000.0,038.2,031.3,30.1,0000.0,0006.93,0004.09,0003.88
2023-08-06 09:31:00,SystemResetWarning,0838.5,4.99,000.00,029.7,028.5,000.0,038.2,031.3,30.0,0000.0,0007.33,0004.10,0003.88
2023-08-06 09:32:00,SystemResetWarning,0838.6,4.99,000.00,029.7,028.6,000.0,038.2,031.3,30.0,0000.0,0007.34,0004.10,0003.88
2023-08-06 09:33:00,SystemResetWarning,0838.6,5.00,000.00,029.7,028.6,000.0,038.2,031.4,30.0,0000.0,0007.41,0004.11,0003.88
2023-08-06 09:34:00,SystemResetWarning,0838.6,5.00,000.00,029.7,028.6,000.0,038.3,031.4,30.0,0000.0,0007.42,0004.11,0003.87
2023-08-06 09:35:00,SystemResetWarning,0838.6,5.01,000.00,029.8,028.7,000.0,038.3,031.4,30.2,0000.0,0007.32,0004.10,0003.87
2023-08-06 09:36:00,SystemResetWarning,0838.6,5.01,000.00,029.8,028.7,000.0,038.3,031.4,30.0,0000.0,0007.34,0004.09,0003.86
2023-08-06 09:37:00,SystemResetWarning,0838.5,5.01,000.00,029.8,028.7,000.0,038.3,031.5,29.9,0000.0,0006.45,0004.06,0003.85
2023-08-06 09:38:00,SystemResetWarning,0838.3,4.99,000.00,029.8,028.7,000.0,038.4,031.5,29.7,0000.0,0005.71,0004.05,0003.84
2023-08-06 09:39:00,SystemResetWarning,0838.1,4.98,000.00,029.8,027.4,000.0,038.3,031.3,29.9,0000.0,0005.81,0004.04,0003.83
2023-08-06 09:40:00,SystemResetWarning,0837.8,5.02,000.00,029.8,025.7,000.0,038.1,031.1,29.8,0000.0,0005.88,0004.03,0003.83
2023-08-06 09:41:00,SystemResetWarning,0837.7,5.01,000.00,029.7,025.3,000.0,038.0,030.9,29.9,0000.0,0006.00,0004.01,0003.83
2023-08-06 09:42:00,SystemResetWarning,0837.6,5.01,000.00,029.5,025.5,000.0,038.1,030.7,30.1,0000.0,0006.37,0004.01,0003.84
2023-08-06 09:43:00,SystemResetWarning,0837.6,5.00,000.00,029.5,025.9,000.0,038.1,030.7,30.4,0000.0,0006.43,0004.03,0003.85
2023-08-06 09:44:00,SystemResetWarning,0837.4,5.00,000.00,029.4,026.3,000.0,038.1,030.8,30.5,0000.0,0006.30,0004.02,0003.85
2023-08-06 09:45:00,SystemResetWarning,0837.4,4.99,000.00,029.4,026.6,000.0,038.1,030.8,30.6,0000.0,0006.17,0003.99,0003.84
2023-08-06 09:46:00,SystemResetWarning,0837.3,4.99,000.00,029.4,026.9,000.0,038.1,030.9,30.8,0000.0,0007.23,0003.99,0003.83
2023-08-06 09:47:00,SystemResetWarning,0837.2,4.99,000.00,029.4,027.2,000.0,038.1,030.9,30.9,0000.0,0007.33,0003.98,0003.82
2023-08-06 09:48:00,SystemResetWarning,0837.2,5.00,000.00,029.4,027.4,000.0,038.1,030.9,31.1,0000.0,0007.29,0003.97,0003.83
2023-08-06 09:49:00,SystemResetWarning,0837.3,5.00,000.00,029.4,027.6,000.0,038.1,031.0,31.2,0000.0,0007.68,0003.96,0003.83
2023-08-06 09:50:00,SystemResetWarning,0837.2,5.00,000.00,029.4,027.7,000.0,038.1,031.0,31.2,0000.0,0007.80,0003.94,0003.83
2023-08-06 09:51:00,SystemResetWarning,0837.2,5.00,000.00,029.4,027.9,000.0,038.1,031.0,31.3,0000.0,0007.68,0003.93,0003.83
2023-08-06 09:52:00,SystemResetWarning,0837.4,5.00,000.00,029.4,027.9,000.0,038.1,031.0,31.4,0000.0,0007.59,0003.93,0003.83
2023-08-06 09:53:00,SystemResetWarning,0837.4,5.00,000.00,029.5,028.0,000.0,038.1,031.1,31.5,0000.0,0006.88,0003.93,0003.83
2023-08-06 09:54:00,SystemResetWarning,0837.5,5.00,000.00,029.5,028.1,000.0,038.1,031.1,31.5,0000.0,0006.76,0003.91,0003.82
2023-08-06 09:55:00,SystemResetWarning,0837.7,4.99,000.00,029.5,028.2,000.0,038.1,031.1,31.6,0000.0,0007.63,0003.90,0003.82
2023-08-06 09:56:00,SystemResetWarning,0837.6,5.00,000.00,029.5,028.2,000.0,038.1,031.1,31.4,0000.0,0007.78,0003.91,0003.81
2023-08-06 09:57:00,SystemResetWarning,0837.6,5.01,000.00,029.5,028.3,000.0,038.1,031.2,31.4,0000.0,0007.51,0003.91,0003.81
2023-08-06 09:58:00,SystemResetWarning,0837.7,5.01,000.00,029.6,028.3,000.0,038.1,031.2,31.4,0000.0,0007.93,0003.93,0003.82
2023-08-06 09:59:00,SystemResetWarning,0837.7,5.01,000.00,029.6,028.4,000.0,038.2,031.2,31.2,0000.0,0008.00,0003.94,0003.81
